Location: Unspecified
(0.0000°N, 0.0000°E)
Time: 12:11:24
(UTC+00:00)

Echo 2 Rocket - Visible Passes

Search period start: 20 July 2025 00:00
Search period end: 30 July 2025 00:00
Orbit: 1040 x 1300 km, 81.5° (Epoch: 19 July)

Date Brightness Start Highest point End Pass type
(mag) Time Alt. Az. Time Alt. Az. Time Alt. Az.
20 Jul 6.3 20:29:40 10° N 20:34:35 40° NNE 20:34:35 40° NNE visible
20 Jul 8.0 22:23:00 10° WNW 22:23:28 11° WNW 22:23:28 11° WNW visible
21 Jul 6.2 20:04:51 10° NNE 20:10:07 36° NE 20:10:07 36° NE visible
21 Jul 7.6 21:55:53 10° NW 21:59:01 19° WNW 21:59:01 19° WNW visible
22 Jul 6.4 19:40:20 10° NNE 19:45:43 28° ENE 19:45:43 28° ENE visible
22 Jul 7.0 21:29:34 10° NW 21:34:37 30° WNW 21:34:37 30° WNW visible
23 Jul 6.7 19:16:19 10° NE 19:21:22 20° E 19:21:22 20° E visible
23 Jul 6.4 21:03:41 10° NNW 21:10:16 45° WNW 21:10:16 45° WNW visible
24 Jul 7.0 18:53:22 10° ENE 18:56:22 12° E 18:57:05 12° E visible
24 Jul 5.7 20:38:05 10° NNW 20:45:53 67° W 20:45:59 67° W visible
25 Jul 5.4 20:12:45 10° N 20:20:39 87° E 20:21:47 69° SSE visible
26 Jul 5.5 19:47:38 10° N 19:55:24 62° E 19:57:39 46° SE visible
26 Jul 7.8 21:41:11 10° WNW 21:44:48 14° W 21:46:34 13° WSW visible
27 Jul 5.8 19:22:48 10° NNE 19:30:08 43° E 19:33:37 28° SE visible
27 Jul 7.4 21:13:59 10° NW 21:19:34 21° W 21:22:32 17° WSW visible
28 Jul 6.3 18:58:17 10° NNE 19:04:52 30° E 19:09:41 16° SE visible
28 Jul 7.0 20:47:38 10° NW 20:54:20 31° W 20:58:37 19° SW visible
29 Jul 6.7 18:34:14 10° NE 18:39:35 20° E 18:44:48 10° SE visible
29 Jul 6.4 20:21:43 10° NNW 20:29:05 45° W 20:34:49 16° SSW visible
